Miscellaneous Local Product
Issued by NWS North Platte, NE

Home | Current Version | Previous Version | Graphics & Text | Print | Product List | Glossary On
Versions: 1 2 3 4 5 6 7 8 9 10 11 12 13 14 15 16 17 18 19 20 21 22 23 24 25 26 27 28 29 30 31 32 33 34 35 36 37 38 39 40 41 42 43 44 45 46 47 48 49 50
000
AXUS43 KLBF 251710
MISLBF


WESTERN AND NORTH CENTRAL NEBRASKA HOURLY WEATHER ROUNDUP
NATIONAL WEATHER SERVICE NORTH PLATTE NE
1200 PM CDT THU MAY 25 2017

NOTE: "FAIR" INDICATES FEW OR NO CLOUDS BELOW 12,000 FEET WITH NO
SIGNIFICANT WEATHER AND/OR OBSTRUCTIONS TO VISIBILITY.

NOTE: STATIONS NOT REPORTING VARIABLES SUCH AS SKY/WEATHER OR
PRESSURE ARE PROVIDED BY RAWS AND APRS NETWORKS AND ARE NOT UNDER
NATIONAL WEATHER SERVICE QUALITY CONTROL.

...OBSERVATIONS IN AND NEAR THE EASTERN PANHANDLE OF NEBRASKA...

CITY           SKY/WX    TMP DP  RH WIND       PRES   REMARKS
PINE RIDGE     CLOUDY    63  40  42 MISG      29.56R
GORDON         FAIR      64  40  42 N8        29.56R
CHADRON        CLOUDY    63  46  54 N3        29.56R
ALLIANCE       MOSUNNY   65  45  48 N8        29.56R
SIDNEY         MOSUNNY   70  49  47 NE17      29.56S
CRESCENT LAKE    N/A     70  47  43 N9G16       N/A
$$

...OBSERVATIONS IN NORTHERN NEBRASKA AND FAR SOUTHERN SOUTH DAKOTA...

CITY           SKY/WX    TMP DP  RH WIND       PRES   REMARKS
WINNER         FAIR      64  50  60 NW14      29.47R
VALENTINE      CLOUDY    65  47  52 NW10      29.51R
THEDFORD       CLOUDY    64  50  60 W3        29.54R
AINSWORTH      CLOUDY    64  50  61 SW3       29.49F
O`NEILL        LGT RAIN  59  49  68 SE21      29.46F
ORD            CLOUDY    59  45  59 SE15      29.48F
BROKEN BOW     PTSUNNY   63  50  62 SW9       29.53S
VALENTINE NWR    N/A     66  48  52 NW9         N/A
HALSEY           N/A     63  48  59 MISG        N/A
BUTTE            N/A     61  50  66 S12G20      N/A
CHAMBERS         N/A     62  54  75 S6          N/A
EWING            N/A     66  50  57 SW12G20     N/A
$$

...OBSERVATIONS IN SOUTHWEST NEBRASKA AND FAR NORTHEAST COLORADO...

CITY           SKY/WX    TMP DP  RH WIND       PRES   REMARKS
WRAY           FAIR      79  46  31 N17G26    29.51F
IMPERIAL       SUNNY     74  53  48 N10       29.52R
OGALLALA       SUNNY     71  53  52 NE3       29.53R
NORTH PLATTE   PTSUNNY   64  51  62 SE7G16    29.51R
MCCOOK         SUNNY     72  52  49 NE6       29.48F
LEXINGTON      MOSUNNY   65  51  61 S8        29.52S
STAPLETON        N/A     62  51  67 NE6         N/A
GOTHENBURG       N/A     62  47  58 SE5         N/A
CALLAWAY         N/A     58  50  76 SW8         N/A
$$

...OBSERVATIONS IN CENTRAL LINCOLN COUNTY AREA...

CITY           SKY/WX    TMP DP  RH WIND       PRES   REMARKS
N.P. AIRPORT   PTSUNNY   64  51  62 SE7G16    29.51R
N.P. DOWNTOWN    N/A     64  52  65 NE3         N/A
N.P. SOUTHEAST   N/A     66  52  60 CALM        N/A
N.P. HILLCREST   N/A     65  52  62 W6          N/A
$$

...SOME OBSERVATIONS FROM AROUND THE REGION...

CITY           SKY/WX    TMP DP  RH WIND       PRES   REMARKS
DENVER         MOSUNNY   76  41  28 N26G33    29.59R
LIMON          SUNNY     80  31  16 W14       29.61F
ASPEN          CLOUDY    64  23  21 S15G25    29.78R
LARAMIE        CLOUDY    55  37  50 W15       29.71S
CASPER         MOSUNNY   55  39  54 W5        29.64R
CHEYENNE       CLOUDY    62  40  44 NW12      29.66S
SCOTTSBLUFF    CLOUDY    68  44  42 W8        29.57S
GRAND ISLAND   SUNNY     69  50  50 S17G29    29.53F
OMAHA          MOSUNNY   70  47  43 S21       29.63F
SIOUX FALLS    MOSUNNY   67  51  56 S25G32    29.53F
PIERRE         CLOUDY    62  46  55 NW14      29.46R
RAPID CITY     CLOUDY    65  27  23 N14       29.52F
BISMARCK       SUNNY     66  47  50 NW8       29.43S
KANSAS CITY    MOSUNNY   70  51  51 S12       29.69F
HILL CITY      MOSUNNY   71  51  49 S9        29.51F
WICHITA        MOSUNNY   71  51  49 S21G29    29.58F
DODGE CITY     SUNNY     71  53  52 S8G20     29.56R
OKLAHOMA CITY  MOSUNNY   76  55  48 S14G22    29.61F
DALLAS         MOSUNNY   85  55  35 S20       29.68F
AMARILLO       SUNNY     91  37  15 W18G24    29.65R
$$




USA.gov is the U.S. government's official web portal to all federal, state and local government web resources and services.